When you browse on this site, cookies collect data to enhance your experience and personalize the content and advertising you see.
Visit our Privacy Policy to learn more. By continuing to use the site, you agree to this use of cookies and data.
  • In Sweden
  • List of Countries
  • For 7 days
  • Water Temperature
  • Satellite Maps
  • Weather Map
  • Weather Widgets
  • user-avatar
    Login

    Hourly Weather Sharbakty

    Today, 22 April, Monday

    Time Temperature Precipitation Wind Pressure Humidity
    00:00 +3°C° 0 mm 2 mps 752 mmHg 61%
    01:00 +3°C° 0 mm 2 mps 753 mmHg 63%
    02:00 +3°C° 0 mm 1 mps 753 mmHg 64%
    03:00 +3°C° 0 mm 1 mps 753 mmHg 65%
    04:00 +2°C° 0 mm 1 mps 753 mmHg 65%
    05:00 +2°C° 0 mm 1 mps 753 mmHg 67%
    06:00 +3°C° 0 mm 1 mps 753 mmHg 60%
    07:00 +5°C° 0 mm 1 mps 754 mmHg 54%
    08:00 +6°C° 0 mm 1 mps 754 mmHg 48%
    09:00 +7°C° 0 mm 1 mps 754 mmHg 44%
    10:00 +8°C° 0 mm 1 mps 754 mmHg 40%
    11:00 +9°C° 0 mm 1 mps 754 mmHg 37%
    12:00 +10°C° 0 mm 1 mps 754 mmHg 35%
    13:00 +10°C° 0 mm 1 mps 754 mmHg 33%
    14:00 +11°C° 0 mm 1 mps 754 mmHg 31%
    15:00 +11°C° 0 mm 1 mps 754 mmHg 30%
    16:00 +11°C° 0 mm 1 mps 754 mmHg 30%
    17:00 +10°C° 0 mm 0 mps 753 mmHg 29%
    18:00 +9°C° 0 mm 0 mps 753 mmHg 32%
    19:00 +10°C° 0 mm 1 mps 753 mmHg 35%
    20:00 +10°C° 0 mm 1 mps 753 mmHg 38%
    21:00 +9°C° 0 mm 1 mps 753 mmHg 39%
    22:00 +8°C° 0 mm 1 mps 753 mmHg 41%
    23:00 +7°C° 0 mm 2 mps 753 mmHg 42%

    Tomorrow, 23 April, Tuesday

    Time Temperature Precipitation Wind Pressure Humidity
    00:00 +6°C° 0 mm 2 mps 753 mmHg 43%
    01:00 +6°C° 0 mm 2 mps 753 mmHg 44%
    02:00 +6°C° 0 mm 2 mps 752 mmHg 45%
    03:00 +6°C° 0 mm 2 mps 752 mmHg 46%
    04:00 +5°C° 0 mm 2 mps 752 mmHg 47%
    05:00 +5°C° 0 mm 2 mps 752 mmHg 48%
    06:00 +6°C° 0 mm 2 mps 752 mmHg 45%
    07:00 +7°C° 0 mm 2 mps 752 mmHg 41%
    08:00 +8°C° 0 mm 2 mps 752 mmHg 38%
    09:00 +9°C° 0 mm 2 mps 752 mmHg 35%
    10:00 +10°C° 0 mm 3 mps 752 mmHg 33%
    11:00 +11°C° 0 mm 3 mps 751 mmHg 30%
    12:00 +11°C° 0 mm 3 mps 751 mmHg 30%
    13:00 +12°C° 0 mm 3 mps 750 mmHg 29%
    14:00 +12°C° 0 mm 3 mps 750 mmHg 28%
    15:00 +13°C° 0 mm 2 mps 749 mmHg 28%
    16:00 +13°C° 0 mm 2 mps 749 mmHg 29%
    17:00 +13°C° 0 mm 2 mps 749 mmHg 29%
    18:00 +13°C° 0 mm 1 mps 749 mmHg 33%
    19:00 +12°C° 0 mm 1 mps 749 mmHg 37%
    20:00 +11°C° 0 mm 1 mps 749 mmHg 42%
    21:00 +10°C° 0.7 mm 1 mps 748 mmHg 49%
    22:00 +8°C° 0.7 mm 2 mps 748 mmHg 57%
    23:00 +7°C° 0.7 mm 2 mps 748 mmHg 65%

    Day after tomorrow, 24 April, Wednesday

    Time Temperature Precipitation Wind Pressure Humidity
    00:00 +8°C° 0.2 mm 1 mps 748 mmHg 68%
    01:00 +7°C° 0.2 mm 1 mps 748 mmHg 71%
    02:00 +7°C° 0.2 mm 1 mps 748 mmHg 74%
    03:00 +6°C° 0 mm 1 mps 748 mmHg 75%
    04:00 +5°C° 0 mm 2 mps 748 mmHg 77%
    05:00 +5°C° 0 mm 2 mps 748 mmHg 78%
    06:00 +6°C° 0 mm 2 mps 748 mmHg 71%
    07:00 +8°C° 0 mm 3 mps 748 mmHg 64%
    08:00 +10°C° 0 mm 3 mps 748 mmHg 57%
    09:00 +11°C° 0 mm 4 mps 748 mmHg 50%
    10:00 +12°C° 0 mm 4 mps 748 mmHg 44%
    11:00 +14°C° 0 mm 4 mps 747 mmHg 38%
    12:00 +14°C° 0 mm 4 mps 747 mmHg 38%
    13:00 +15°C° 0 mm 4 mps 747 mmHg 38%
    14:00 +15°C° 0 mm 5 mps 746 mmHg 38%
    15:00 +15°C° 0 mm 4 mps 746 mmHg 39%
    16:00 +15°C° 0 mm 4 mps 746 mmHg 40%
    17:00 +15°C° 0 mm 4 mps 746 mmHg 41%
    18:00 +14°C° 0 mm 4 mps 746 mmHg 44%
    19:00 +12°C° 0 mm 3 mps 746 mmHg 48%
    20:00 +11°C° 0 mm 3 mps 745 mmHg 51%
    21:00 +11°C° 0 mm 3 mps 745 mmHg 52%
    22:00 +11°C° 0 mm 3 mps 745 mmHg 52%
    23:00 +11°C° 0 mm 3 mps 745 mmHg 53%

    25 April, Thursday

    Time Temperature Precipitation Wind Pressure Humidity
    00:00 +10°C° 0 mm 3 mps 744 mmHg 54%
    01:00 +9°C° 0 mm 3 mps 744 mmHg 55%
    02:00 +8°C° 0 mm 4 mps 744 mmHg 56%
    03:00 +8°C° 0 mm 4 mps 743 mmHg 55%
    04:00 +8°C° 0 mm 4 mps 743 mmHg 54%
    05:00 +7°C° 0 mm 4 mps 743 mmHg 53%
    06:00 +10°C° 0 mm 4 mps 743 mmHg 49%
    07:00 +10°C° 0 mm 5 mps 743 mmHg 45%
    08:00 +13°C° 0 mm 6 mps 743 mmHg 40%
    09:00 +14°C° 0 mm 7 mps 742 mmHg 38%
    10:00 +15°C° 0 mm 8 mps 742 mmHg 35%
    11:00 +16°C° 0 mm 9 mps 742 mmHg 33%
    12:00 +16°C° 0 mm 9 mps 742 mmHg 35%
    13:00 +16°C° 0 mm 9 mps 741 mmHg 37%
    14:00 +15°C° 0 mm 9 mps 741 mmHg 39%
    15:00 +15°C° 0 mm 9 mps 741 mmHg 39%
    16:00 +15°C° 0 mm 9 mps 742 mmHg 39%
    17:00 +13°C° 0 mm 9 mps 742 mmHg 39%
    18:00 +12°C° 0 mm 7 mps 742 mmHg 43%
    19:00 +11°C° 0 mm 6 mps 743 mmHg 46%
    20:00 +10°C° 0 mm 5 mps 744 mmHg 49%
    21:00 +10°C° 0 mm 4 mps 744 mmHg 53%
    22:00 +8°C° 0 mm 4 mps 744 mmHg 56%
    23:00 +8°C° 0 mm 3 mps 745 mmHg 59%

    26 April, Friday

    Time Temperature Precipitation Wind Pressure Humidity
    00:00 +8°C° 0 mm 3 mps 744 mmHg 60%
    01:00 +7°C° 0 mm 3 mps 744 mmHg 60%
    02:00 +7°C° 0 mm 3 mps 744 mmHg 61%
    03:00 +7°C° 0.2 mm 3 mps 744 mmHg 67%
    04:00 +6°C° 0.2 mm 4 mps 743 mmHg 73%
    05:00 +7°C° 0.2 mm 5 mps 743 mmHg 79%
    06:00 +8°C° 0.1 mm 7 mps 743 mmHg 71%
    07:00 +8°C° 0.1 mm 9 mps 743 mmHg 64%
    08:00 +9°C° 0.1 mm 10 mps 742 mmHg 57%
    09:00 +11°C° 0.1 mm 11 mps 742 mmHg 53%
    10:00 +12°C° 0.1 mm 11 mps 742 mmHg 50%
    11:00 +12°C° 0.1 mm 12 mps 742 mmHg 46%
    12:00 +11°C° 0.2 mm 11 mps 742 mmHg 54%
    13:00 +9°C° 0.2 mm 10 mps 743 mmHg 61%
    14:00 +9°C° 0.2 mm 8 mps 743 mmHg 69%
    15:00 +8°C° 0.2 mm 7 mps 743 mmHg 68%
    16:00 +8°C° 0.2 mm 6 mps 744 mmHg 68%
    17:00 +7°C° 0.2 mm 4 mps 744 mmHg 67%
    18:00 +6°C° 0.1 mm 5 mps 744 mmHg 68%
    19:00 +5°C° 0.1 mm 5 mps 745 mmHg 68%
    20:00 +3°C° 0.1 mm 5 mps 745 mmHg 69%
    21:00 +2°C° 0.4 mm 5 mps 745 mmHg 71%
    22:00 +2°C° 0.4 mm 5 mps 745 mmHg 73%
    23:00 +1°C° 0.4 mm 5 mps 745 mmHg 75%

    27 April, Saturday

    Time Temperature Precipitation Wind Pressure Humidity
    00:00 +1°C° 0.4 mm 5 mps 746 mmHg 76%
    01:00 +1°C° 0.4 mm 4 mps 746 mmHg 76%
    02:00 0°C° 0.4 mm 4 mps 746 mmHg 77%
    03:00 0°C° 0 mm 4 mps 747 mmHg 78%
    04:00 -1°C° 0 mm 4 mps 747 mmHg 79%
    05:00 -1°C° 0 mm 4 mps 748 mmHg 80%
    06:00 0°C° 0 mm 3 mps 749 mmHg 74%
    07:00 +1°C° 0 mm 3 mps 749 mmHg 68%
    08:00 +2°C° 0 mm 3 mps 750 mmHg 62%
    09:00 +4°C° 0 mm 2 mps 750 mmHg 55%
    10:00 +5°C° 0 mm 2 mps 751 mmHg 48%
    11:00 +6°C° 0 mm 2 mps 751 mmHg 41%
    12:00 +8°C° 0 mm 1 mps 751 mmHg 38%
    13:00 +8°C° 0 mm 1 mps 751 mmHg 35%
    14:00 +9°C° 0 mm 1 mps 751 mmHg 32%
    15:00 +9°C° 0 mm 2 mps 751 mmHg 32%
    16:00 +9°C° 0 mm 2 mps 750 mmHg 32%
    17:00 +9°C° 0 mm 3 mps 750 mmHg 32%
    18:00 +8°C° 0 mm 3 mps 750 mmHg 36%
    19:00 +8°C° 0 mm 3 mps 751 mmHg 40%
    20:00 +7°C° 0 mm 3 mps 751 mmHg 43%
    21:00 +5°C° 0 mm 4 mps 751 mmHg 44%
    22:00 +5°C° 0 mm 5 mps 751 mmHg 44%
    23:00 +5°C° 0 mm 5 mps 750 mmHg 44%
    Show more